Overview Statistics Trail Chart Weather Telemetry Raw packets
 

This is the latest recevied weather packets stored in our database for station/object N7WSS. If no packets are shown the sender has not sent any weather packets the latest 10 day(s).

<< 81 82 83 84 85 86 87 >>
Time Temp. Humidity Pressure Rain* Wind** Luminosity Snow
1788037986 40.56° C 25% 1011.4 hPa 0 mm - - -
1788037681 40.56° C 25% 1011.7 hPa 0 mm - - -
1788037376 40.56° C 25% 1011.5 hPa 0 mm - - -
1788037075 40° C 26% 1011.8 hPa 0 mm - - -
1788036770 40° C 27% 1012.1 hPa 0 mm - - -
1788036467 39.44° C 27% 1012.5 hPa 0 mm - - -
1788036162 40.56° C 26% 1012.3 hPa 0 mm - - -
1788035862 40.56° C 26% 1012.1 hPa 0 mm - - -
1788035557 39.44° C 27% 1012.4 hPa 0 mm - - -
1788035252 39.44° C 26% 1012.5 hPa 0 mm - - -
1788034948 40° C 26% 1012.5 hPa 0 mm - - -
1788034644 39.44° C 26% 1012.6 hPa 0 mm - - -
1788034341 40° C 25% 1012.8 hPa 0 mm - - -
1788034040 40° C 24% 1012.7 hPa 0 mm - - -
1788033740 40° C 25% 1012.9 hPa 0 mm - - -
1788033439 39.44° C 26% 1012.9 hPa 0 mm - - -
1788033134 39.44° C 25% 1013.2 hPa 0 mm - - -
1788032829 39.44° C 26% 1013 hPa 0 mm - - -
1788032529 39.44° C 26% 1013.2 hPa 0 mm - - -
1788032224 39.44° C 27% 1013.5 hPa 0 mm - - -
1788031921 38.89° C 27% 1013.6 hPa 0 mm - - -
1788031620 38.89° C 28% 1013.6 hPa 0 mm - - -
1788031315 38.89° C 27% 1013.8 hPa 0 mm - - -
1788031014 38.89° C 28% 1013.9 hPa 0 mm - - -
1788030708 38.33° C 28% 1013.8 hPa 0 mm - - -

* Rain latest hour (hover to see other rain measurements)
** Current wind speed in m/s (hover to see current wind gust speed)